Location: Newark
(50.0306°N, 2.3272°E)
Time: 16:41:30
(UTC+00:00)

Vanguard 1 Rocket - Pass Details

Date: 11 December 2019
Orbit: 650 x 4226 km, 34.3° (Epoch: 21 January)

Event Time Altitude Azimuth Distance (km) Brightness Sun altitude
Rises 20:01:01 0° 225° (SW) 8,035 12.6 -39.2°
Reaches altitude 10° 20:08:01 10° 217° (SW) 6,557 11.9 -40.3°
Enters shadow 20:21:04 29° 178° (S) 3,960 10.4 -42.4°
Maximum altitude 20:23:08 30° 166° (SSE) 3,701 - -42.7°
Drops below altitude 10° 20:32:22 10° 110° (ESE) 3,970 - -44.1°
Sets 20:35:21 0° 99° (E) 4,564 - -44.6°
